Torna al catalogo

STARLINK-33718

AttivoComunicazioniVLEO
NORAD 63476·PAYLOAD·🇺🇸 United States

Lanciato Apr 6, 2025 da Cape Canaveral Space Force Station

Loading…

Prossimi Passaggi (prossime 24 ore)

TLE

AggiornatoSource: CelesTrak SupGP

Epoca: Sep 15, 2026, 03:33 UTC

1 63476C 25070S   26258.14840278 -.00021549  00000+0 -78067-3 0  2588
2 63476  43.0000 269.5357 0001226 263.8763 148.7369 15.27582683    14

Traccia STARLINK-33718 in tempo reale con AllMySat

Download on the App Store